Date String (YYYY-MM-DD hh:mm:ss) UTC,Instrument flags,absolute air pressure of the measurement (hPa),sample flow rate (lpm),inlet stack bypass flow (lpm),air temperature of the measurement (°C),ambient temperature measured by the external sensor (°C),aerosol sample conditioner tube jacket temperature (°C),OPC LED temperature (°C),internal box temperature (°C),relative humidity of the measurement (%),span deviation,mass concentration of particles derived from Lorenz-Mie calculation of OPC scattering (μg/m³),mass concentration of particles derived from Lorenz-Mie calculation of OPC scattering (μg/m³),mass concentration of particles derived from Lorenz-Mie calculation of OPC scattering (μg/m³)
DateTimeUTC,F1_M11,P_M11,Q1_M11,Q2_M11,T1_M11,T2_M11,T3_M11,T4_M11,T5_M11,U1_M11,ZSPAN_M11,X0_M11,X2_M11,X1_M11
2024-02-22 23:00:00,SystemResetWarning,0831.4,5.00,000.00,021.7,021.2,000.0,030.0,023.5,20.4,0000.0,0001.57,0000.79,0000.50
2024-02-22 23:01:00,SystemResetWarning,0831.4,5.01,000.00,021.7,021.2,000.0,030.0,023.6,20.8,0000.0,0001.51,0000.79,0000.51
2024-02-22 23:02:00,SystemResetWarning,0831.4,5.00,000.00,021.7,021.3,000.0,030.0,023.6,20.9,0000.0,0001.49,0000.79,0000.52
2024-02-22 23:03:00,SystemResetWarning,0831.4,5.00,000.00,021.7,021.3,000.0,030.0,023.6,20.2,0000.0,0001.40,0000.76,0000.52
2024-02-22 23:04:00,SystemResetWarning,0831.5,5.00,000.00,021.7,021.3,000.0,030.0,023.6,19.6,0000.0,0001.31,0000.74,0000.52
2024-02-22 23:05:00,SystemResetWarning,0831.4,4.99,000.00,021.7,021.3,000.0,030.0,023.6,19.3,0000.0,0001.25,0000.72,0000.52
2024-02-22 23:06:00,SystemResetWarning,0831.4,4.99,000.00,021.8,021.3,000.0,030.0,023.6,19.5,0000.0,0001.23,0000.71,0000.53
2024-02-22 23:07:00,SystemResetWarning,0831.4,4.99,000.00,021.8,021.3,000.0,030.0,023.6,19.8,0000.0,0001.12,0000.67,0000.51
2024-02-22 23:08:00,SystemResetWarning,0831.5,5.01,000.00,021.8,021.3,000.0,030.1,023.7,20.1,0000.0,0001.08,0000.65,0000.50
2024-02-22 23:09:00,SystemResetWarning,0831.4,5.00,000.00,021.8,021.3,000.0,030.1,023.7,19.9,0000.0,0001.13,0000.68,0000.51
2024-02-22 23:10:00,SystemResetWarning,0831.4,5.01,000.00,021.8,021.3,000.0,030.1,023.7,19.4,0000.0,0001.15,0000.68,0000.50
2024-02-22 23:11:00,SystemResetWarning,0831.4,5.00,000.00,021.8,021.3,000.0,030.1,023.7,19.3,0000.0,0001.21,0000.68,0000.49
2024-02-22 23:12:00,SystemResetWarning,0831.4,5.00,000.00,021.8,021.3,000.0,030.1,023.7,19.3,0000.0,0001.23,0000.68,0000.49
2024-02-22 23:13:00,SystemResetWarning,0831.4,4.99,000.00,021.8,021.4,000.0,030.1,023.7,19.8,0000.0,0001.25,0000.68,0000.49
2024-02-22 23:14:00,SystemResetWarning,0831.4,4.99,000.00,021.8,021.4,000.0,030.1,023.7,19.8,0000.0,0001.81,0000.68,0000.48
2024-02-22 23:15:00,SystemResetWarning,0831.3,5.00,000.00,021.9,021.4,000.0,030.1,023.7,19.7,0000.0,0001.81,0000.68,0000.48
2024-02-22 23:16:00,SystemResetWarning,0831.3,5.00,000.00,021.9,021.4,000.0,030.2,023.7,20.0,0000.0,0001.95,0000.71,0000.48
2024-02-22 23:17:00,SystemResetWarning,0831.3,5.01,000.00,021.9,021.4,000.0,030.2,023.8,19.7,0000.0,0001.90,0000.70,0000.47
2024-02-22 23:18:00,SystemResetWarning,0831.3,5.00,000.00,021.9,021.4,000.0,030.2,023.8,19.5,0000.0,0001.88,0000.71,0000.47
2024-02-22 23:19:00,SystemResetWarning,0831.3,5.00,000.00,021.9,021.4,000.0,030.2,023.8,19.9,0000.0,0001.92,0000.73,0000.48
2024-02-22 23:20:00,SystemResetWarning,0831.3,5.00,000.00,021.9,021.4,000.0,030.2,023.8,20.1,0000.0,0001.93,0000.72,0000.48
2024-02-22 23:21:00,SystemResetWarning,0831.4,5.00,000.00,021.9,021.4,000.0,030.2,023.8,20.0,0000.0,0001.89,0000.70,0000.47
2024-02-22 23:22:00,SystemResetWarning,0831.4,5.00,000.00,021.9,021.4,000.0,030.2,023.8,19.5,0000.0,0001.80,0000.68,0000.47
2024-02-22 23:23:00,SystemResetWarning,0831.4,5.00,000.00,021.9,021.5,000.0,030.2,023.8,19.0,0000.0,0001.75,0000.67,0000.47
2024-02-22 23:24:00,SystemResetWarning,0831.4,4.99,000.00,022.0,021.5,000.0,030.2,023.8,19.4,0000.0,0001.79,0000.66,0000.45
2024-02-22 23:25:00,SystemResetWarning,0831.4,4.99,000.00,022.0,021.5,000.0,030.2,023.8,19.6,0000.0,0001.40,0000.65,0000.45
2024-02-22 23:26:00,SystemResetWarning,0831.4,5.00,000.00,022.0,021.5,000.0,030.3,023.8,19.9,0000.0,0001.36,0000.68,0000.45
2024-02-22 23:27:00,SystemResetWarning,0831.4,5.01,000.00,022.0,021.5,000.0,030.3,023.9,19.8,0000.0,0001.35,0000.71,0000.45
2024-02-22 23:28:00,SystemResetWarning,0831.4,5.01,000.00,022.0,021.5,000.0,030.3,023.9,19.5,0000.0,0001.30,0000.68,0000.45
2024-02-22 23:29:00,SystemResetWarning,0831.4,5.00,000.00,022.0,021.5,000.0,030.3,023.9,19.7,0000.0,0001.27,0000.66,0000.44
2024-02-22 23:30:00,SystemResetWarning,0831.4,5.00,000.00,022.0,021.5,000.0,030.3,023.9,19.7,0000.0,0001.19,0000.63,0000.43
2024-02-22 23:31:00,SystemResetWarning,0831.5,4.99,000.00,022.0,021.6,000.0,030.3,023.9,19.7,0000.0,0001.15,0000.62,0000.43
2024-02-22 23:32:00,SystemResetWarning,0831.4,5.00,000.00,022.0,021.6,000.0,030.3,023.9,19.5,0000.0,0001.20,0000.63,0000.42
2024-02-22 23:33:00,SystemResetWarning,0831.5,4.99,000.00,022.0,021.6,000.0,030.3,023.9,19.7,0000.0,0001.27,0000.64,0000.42
2024-02-22 23:34:00,SystemResetWarning,0831.5,5.00,000.00,022.1,021.6,000.0,030.3,023.9,20.1,0000.0,0001.33,0000.65,0000.43
2024-02-22 23:35:00,SystemResetWarning,0831.5,5.00,000.00,022.1,021.6,000.0,030.3,023.9,20.3,0000.0,0001.25,0000.64,0000.42
2024-02-22 23:36:00,SystemResetWarning,0831.5,5.00,000.00,022.1,021.6,000.0,030.4,023.9,20.1,0000.0,0001.16,0000.64,0000.42
2024-02-22 23:37:00,SystemResetWarning,0831.5,4.99,000.00,022.1,021.6,000.0,030.4,024.0,20.1,0000.0,0001.13,0000.61,0000.42
2024-02-22 23:38:00,SystemResetWarning,0831.5,5.00,000.00,022.1,021.6,000.0,030.4,024.0,20.0,0000.0,0001.06,0000.58,0000.41
2024-02-22 23:39:00,SystemResetWarning,0831.5,5.00,000.00,022.1,021.6,000.0,030.4,024.0,20.0,0000.0,0001.10,0000.59,0000.42
2024-02-22 23:40:00,SystemResetWarning,0831.5,5.00,000.00,022.1,021.6,000.0,030.4,024.0,20.0,0000.0,0001.12,0000.61,0000.42
2024-02-22 23:41:00,SystemResetWarning,0831.4,5.00,000.00,022.1,021.7,000.0,030.4,024.0,19.9,0000.0,0001.13,0000.61,0000.42
2024-02-22 23:42:00,SystemResetWarning,0831.5,5.01,000.00,022.1,021.7,000.0,030.4,024.0,19.8,0000.0,0001.16,0000.63,0000.43
2024-02-22 23:43:00,SystemResetWarning,0831.5,5.00,000.00,022.1,021.7,000.0,030.4,024.0,19.8,0000.0,0001.12,0000.61,0000.43
2024-02-22 23:44:00,SystemResetWarning,0831.4,5.00,000.00,022.1,021.7,000.0,030.4,024.0,19.9,0000.0,0001.10,0000.62,0000.44
2024-02-22 23:45:00,SystemResetWarning,0831.4,5.00,000.00,022.1,021.7,000.0,030.5,024.0,20.1,0000.0,0001.07,0000.63,0000.45
2024-02-22 23:46:00,SystemResetWarning,0831.4,5.00,000.00,022.2,021.7,000.0,030.5,024.0,20.1,0000.0,0001.08,0000.64,0000.46
2024-02-22 23:47:00,SystemResetWarning,0831.4,5.00,000.00,022.2,021.7,000.0,030.5,024.0,19.9,0000.0,0001.09,0000.65,0000.46
2024-02-22 23:48:00,SystemResetWarning,0831.4,5.00,000.00,022.2,021.7,000.0,030.5,024.0,19.7,0000.0,0001.09,0000.65,0000.47
2024-02-22 23:49:00,SystemResetWarning,0831.3,5.01,000.00,022.2,021.7,000.0,030.5,024.0,19.6,0000.0,0001.05,0000.64,0000.47
2024-02-22 23:50:00,SystemResetWarning,0831.3,5.00,000.00,022.2,021.7,000.0,030.5,024.0,19.9,0000.0,0001.07,0000.64,0000.47
2024-02-22 23:51:00,SystemResetWarning,0831.3,5.00,000.00,022.2,021.7,000.0,030.5,024.0,19.7,0000.0,0001.07,0000.64,0000.47
2024-02-22 23:52:00,SystemResetWarning,0831.3,5.00,000.00,022.2,021.7,000.0,030.5,024.0,19.6,0000.0,0001.12,0000.65,0000.48
2024-02-22 23:53:00,SystemResetWarning,0831.4,5.00,000.00,022.2,021.7,000.0,030.5,024.0,19.6,0000.0,0001.11,0000.65,0000.47
2024-02-22 23:54:00,SystemResetWarning,0831.3,4.99,000.00,022.2,021.7,000.0,030.5,024.0,19.9,0000.0,0001.12,0000.66,0000.47
2024-02-22 23:55:00,SystemResetWarning,0831.3,4.99,000.00,022.2,021.7,000.0,030.5,024.0,19.8,0000.0,0001.08,0000.65,0000.48
2024-02-22 23:56:00,SystemResetWarning,0831.4,5.00,000.00,022.2,021.7,000.0,030.5,024.0,19.9,0000.0,0001.08,0000.65,0000.48
2024-02-22 23:57:00,SystemResetWarning,0831.3,5.00,000.00,022.2,021.7,000.0,030.5,024.0,20.2,0000.0,0001.09,0000.64,0000.47
2024-02-22 23:58:00,SystemResetWarning,0831.3,5.00,000.00,022.2,021.7,000.0,030.5,024.0,20.3,0000.0,0001.16,0000.64,0000.47
2024-02-22 23:59:00,SystemResetWarning,0831.3,5.01,000.00,022.2,021.7,000.0,030.5,024.0,20.1,0000.0,0001.14,0000.63,0000.47
